Regional Weather Roundup
Issued by NWS Binghamton, NY

Home | Current Version | Previous Version | Text Only | Print | Product List | Glossary On
Versions: 1 2 3 4 5 6 7 8 9 10 11 12 13 14 15 16 17 18 19 20 21 22 23 24 25 26 27 28 29 30 31 32 33 34 35 36 37 38 39 40 41 42 43 44 45 46 47 48 49 50
000
ASUS41 KBGM 161810
RWRBGM
RWRBGM
BINGHAMTON REGIONAL WEATHER ROUNDUP
NATIONAL WEATHER SERVICE BINGHAMTON NY
200 PM EDT TUE SEP 16 2014

Note: "fair" indicates few or no clouds below 12,000 feet with no
significant weather and/or obstructions to visibility.

* = Station(s) that does not report precipitation, such as rain,
snow, etc, also no thunder or fog.

!NYZ009-015>018-022>025-036-037-044>046-055>057-062-161900
...CENTRAL NEW YORK...

CITY           SKY/WX    TMP DP  RH WIND       PRES   REMARKS
BINGHAMTON     CLOUDY    57  51  80 W8        30.04F
CORTLAND       PTSUNNY   61  50  67 NW8       30.05S
DANSVILLE      PTSUNNY   61  44  53 NW10      30.06F
ELMIRA         CLOUDY    63  52  67 CALM      30.04F
ITHACA         PTSUNNY   64  51  62 W8        30.05F
HAMILTON       CLOUDY    61  52  72 N7        30.02F
MONTICELLO     CLOUDY    61  48  63 NW13      30.02F
NORWICH        CLOUDY    61  48  63 NW8       30.02F
PENN YAN       CLOUDY    60  46  59 NW8       30.05F
ROME           PTSUNNY   62  54  74 SW7       30.01F
SIDNEY         CLOUDY    61  55  82 W5        30.03S
SYRACUSE       MOSUNNY   65  47  52 NW15      30.02F
$$

!PAZ038>040-043-044-047-048-072-161900
...NORTHEAST PENNSYLVANIA...

CITY           SKY/WX    TMP DP  RH WIND       PRES   REMARKS
HAZLETON       CLOUDY    61  48  63 NW7       30.06S
SCRANTON       CLOUDY    64  48  56 NW10      30.02S
TOWANDA*       MOSUNNY   63  52  67 E3        30.04F
$$
&&
KEY
WCI = WIND CHILL INDEX
VSB = VISIBILITY
HX  = HEAT INDEX
$$



USA.gov is the U.S. government's official web portal to all federal, state and local government web resources and services.